GEFSNGP_con_probscp_360.txt.gz
Probability
0 0 0 0 0 0 1 1 1 2 5 8 11 13 14 14 13 14 15 16 17 19 16 13 12 15 18 18 17 18 21 24 26 28 27 24 22 21 20 19 19 21 24 24
0 0 0 0 1 1 2 2 3 4 6 8 10 12 13 13 13 14 15 17 20 20 16 12 11 15 18 19 18 19 22 25 27 27 27 25 24 23 21 19 20 21 21 21
0 0 0 1 2 2 2 2 3 4 5 7 8 9 10 11 12 14 18 20 21 19 14 10 10 15 18 19 20 21 23 24 26 27 26 25 25 24 22 21 22 21 20 19
0 0 0 1 2 1 1 1 1 2 4 6 7 7 8 9 11 15 21 24 22 17 12 10 12 16 20 21 21 22 22 21 23 25 26 24 22 23 24 24 24 23 21 20
0 0 0 1 1 0 0 1 2 3 4 6 6 7 8 11 13 18 23 25 22 18 14 13 16 20 24 25 25 24 22 21 21 23 25 23 22 22 25 26 25 23 22 22
0 0 0 0 0 0 0 1 2 4 5 6 6 8 11 14 17 21 23 22 20 17 16 16 19 23 25 25 24 24 22 21 20 22 23 23 23 24 25 25 24 23 23 22
0 0 0 0 0 0 1 2 4 5 5 6 8 10 13 16 19 21 20 19 17 15 15 16 18 21 22 20 19 19 19 18 18 19 20 20 21 23 23 21 20 20 19 19
0 0 0 0 1 1 2 4 5 6 6 8 12 13 15 19 21 21 19 18 16 15 14 14 16 18 18 17 15 14 14 14 14 15 15 15 17 18 18 16 15 14 13 14
0 0 1 1 1 3 5 6 6 7 8 11 14 17 20 22 22 21 20 18 16 13 12 12 14 15 15 15 14 13 12 12 12 13 13 13 15 15 13 12 11 9 9 9
1 0 0 1 2 4 7 7 6 7 10 13 15 19 22 23 22 22 22 19 14 11 10 11 12 12 13 13 13 12 11 10 11 12 13 14 15 13 9 7 7 6 6 7
1 1 1 2 4 6 7 8 8 9 11 12 15 18 21 22 21 22 22 19 13 11 10 11 11 11 12 12 11 10 9 9 9 10 11 13 13 10 6 4 3 3 4 6
1 1 3 5 7 7 7 9 11 13 13 12 14 17 19 21 22 22 21 18 14 12 12 10 10 10 11 11 10 8 7 6 6 6 8 9 9 7 3 1 1 1 1 2
1 2 4 6 6 6 7 9 13 15 13 11 12 15 18 20 21 20 19 18 17 15 12 10 9 10 10 10 10 8 6 4 4 5 5 6 7 5 2 0 0 0 0 0
1 2 4 4 4 4 5 7 10 12 11 9 11 13 17 18 17 16 16 16 16 15 13 11 9 9 9 9 8 7 6 4 4 4 4 4 5 5 3 1 0 0 0 0
0 1 3 4 4 4 5 6 7 8 8 9 11 14 16 15 13 13 13 12 11 12 12 9 8 8 9 8 8 7 5 5 5 5 4 3 4 4 3 1 1 1 1 0
0 1 2 3 4 5 6 6 7 8 9 11 13 15 14 13 10 10 9 8 8 8 7 6 5 6 8 8 8 6 5 4 4 5 5 4 4 3 2 1 1 1 1 0
2 3 4 5 6 7 7 7 8 9 12 14 15 14 13 11 9 6 5 6 6 6 4 4 4 5 6 7 7 5 4 2 2 3 4 4 4 2 1 1 0 0 0 0
5 5 6 7 7 7 6 6 7 9 13 14 14 13 10 8 7 5 4 4 4 4 3 3 3 3 4 4 5 3 1 1 0 1 1 2 2 2 2 2 1 1 0 1
6 6 6 6 6 5 5 5 6 10 12 12 12 11 9 7 6 6 5 4 3 3 2 2 2 2 3 3 3 1 0 0 0 0 0 0 1 1 2 2 2 2 2 2
4 4 4 4 4 4 4 5 9 11 11 10 10 10 8 7 7 7 5 4 3 2 1 1 0 1 2 2 2 1 1 0 0 0 0 0 0 0 1 1 2 2 3 3
1 2 2 3 3 3 5 7 10 11 10 9 9 8 7 6 6 6 4 3 3 1 1 1 1 1 1 1 1 2 2 1 0 0 0 0 0 0 0 0 1 1 2 2
0 0 1 2 3 4 5 7 9 10 10 8 6 5 4 5 5 5 3 2 1 1 1 2 2 1 0 0 1 3 3 1 0 0 0 0 0 0 0 0 0 0 1 1
1 1 1 2 3 4 6 7 9 9 8 5 2 1 2 3 4 3 2 1 0 0 1 1 1 1 0 1 2 4 3 1 1 1 1 0 0 1 1 1 0 0 0 0
3 3 3 3 4 5 7 8 8 7 5 2 0 0 1 1 2 3 2 0 0 0 0 0 0 0 0 1 2 3 3 2 2 2 2 1 1 2 2 1 1 1 0 0
4 4 4 3 3 5 6 6 5 3 2 0 0 0 0 0 1 2 1 0 0 0 0 0 0 0 0 0 1 1 1 2 2 2 2 2 3 3 3 2 1 1 0 1
3 3 3 2 2 2 3 2 1 1 0 0 0 0 0 0 0 0 0 0 0 0 0 0 0 0 0 0 0 0 0 1 1 1 1 2 2 2 2 2 2 1 1 2
3 2 2 1 0 0 0 0 0 0 0 0 0 0 0 0 0 0 0 0 0 0 0 0 0 0 0 0 0 0 0 0 0 0 0 1 1 1 1 2 2 2 2 3

GEFSNGP_con_probscp_366.txt.gz
Probability
0 0 0 0 0 0 0 0 0 3 8 14 17 18 20 22 20 20 25 32 37 42 48 51 51 52 50 42 36 36 36 34 34 37 39 39 36 31 29 29 30 32 32 30
1 0 0 0 0 0 0 0 1 5 11 15 18 20 23 23 20 21 26 32 37 43 50 52 52 51 48 42 39 40 38 34 34 36 38 38 36 32 31 31 32 32 31 29
1 0 0 0 1 1 1 2 3 7 12 16 19 23 25 24 22 22 25 30 35 41 47 49 48 48 45 42 43 44 39 34 32 33 35 35 35 34 34 34 34 32 29 27
1 0 0 1 2 2 3 4 7 10 12 14 18 22 25 25 25 25 26 29 32 37 41 42 42 43 42 42 42 40 36 32 30 29 31 33 34 36 37 36 34 31 29 26
0 0 1 2 3 3 3 6 9 11 12 13 13 18 23 25 26 28 29 30 31 33 35 37 38 38 38 38 37 33 30 29 28 28 29 32 35 37 38 38 34 31 28 25
0 0 1 3 2 1 2 7 10 12 12 11 11 15 22 24 26 30 32 31 30 29 30 33 35 35 34 34 33 31 29 28 28 28 29 33 36 38 39 39 36 30 26 23
0 0 1 1 1 4 8 12 13 12 11 11 13 18 24 26 28 32 33 32 31 29 29 33 35 32 31 31 31 31 30 28 28 28 30 34 36 37 38 37 33 28 24 23
1 3 4 4 4 10 18 18 14 12 12 13 17 22 26 28 30 34 36 35 34 32 32 34 34 32 31 31 33 33 32 31 30 30 30 32 34 34 33 32 28 24 23 23
5 7 8 7 6 11 15 14 10 10 14 17 21 26 29 30 31 35 37 36 35 35 35 34 34 33 32 33 35 35 34 33 32 30 26 26 28 28 27 26 24 21 20 19
8 7 7 6 5 5 5 6 8 11 15 19 25 29 31 32 33 34 34 34 35 36 36 34 34 34 33 34 35 34 31 29 28 25 21 19 19 20 20 20 19 18 16 15
8 7 6 5 5 4 5 8 11 14 17 20 25 29 31 35 36 35 35 34 34 34 33 32 34 35 34 33 32 30 26 21 18 17 16 14 13 13 12 13 13 12 12 11
7 9 8 7 8 9 11 13 15 16 17 19 22 24 26 31 34 36 36 35 31 30 29 29 31 34 34 30 28 25 21 15 12 12 12 12 11 10 8 7 5 4 5 5
9 10 10 8 9 11 13 14 14 15 15 16 17 18 20 25 30 33 34 29 25 26 27 26 27 30 29 26 22 19 16 11 9 9 10 10 10 9 8 6 4 2 1 1
9 10 9 8 8 10 11 12 13 13 14 14 14 15 18 23 27 30 28 23 20 22 24 25 25 25 24 22 19 14 10 7 7 9 9 9 10 9 9 9 8 5 2 0
8 8 7 7 7 8 9 10 12 13 12 12 12 15 18 23 26 27 26 24 21 20 21 22 21 20 20 20 16 12 6 4 6 8 9 9 9 9 10 11 8 5 2 0
6 5 5 7 9 9 8 10 12 12 11 10 11 15 18 21 24 25 25 27 26 23 21 20 18 17 18 18 15 10 6 5 5 6 7 8 8 8 8 8 6 3 1 0
6 5 4 7 10 9 8 10 12 12 10 9 11 15 18 20 23 24 26 30 31 27 22 19 17 15 16 17 14 9 6 5 5 5 6 5 5 4 3 4 3 1 0 0
5 5 5 7 11 11 10 11 12 11 10 11 14 17 19 21 23 24 25 29 31 26 19 15 13 12 14 15 13 8 6 5 4 4 3 2 1 1 0 1 1 0 0 0
4 5 6 9 11 11 11 11 11 11 11 14 17 20 22 23 23 22 22 23 23 18 13 9 7 7 10 11 8 6 5 3 2 1 1 0 0 0 0 0 0 0 0 1
5 7 10 12 12 12 12 11 11 12 13 15 17 20 21 22 20 18 17 15 12 8 7 6 5 5 6 5 4 3 3 2 1 1 1 1 0 1 1 0 0 0 0 1
8 10 13 14 12 12 12 13 12 13 13 14 15 15 16 17 16 13 10 8 6 4 3 3 4 4 3 2 2 2 2 2 2 2 2 1 1 2 2 1 1 1 1 2
12 12 13 12 10 9 12 14 13 12 12 12 11 10 11 12 11 8 4 4 4 2 1 1 1 1 1 1 2 3 3 3 2 3 3 3 3 4 4 3 3 2 1 2
12 11 10 9 7 6 8 11 12 12 11 10 9 8 8 8 6 2 1 1 2 1 0 0 0 0 0 1 2 3 3 2 2 3 4 4 4 4 4 4 4 3 2 1
9 8 6 6 5 5 6 8 10 11 11 10 8 6 6 5 3 0 0 0 0 0 0 0 0 0 0 1 2 2 1 1 1 2 3 3 2 2 3 3 3 3 2 1
4 4 3 3 5 6 6 6 7 8 8 7 6 5 4 3 1 0 0 0 0 0 0 1 0 0 0 0 1 1 0 0 0 1 1 1 1 1 1 2 2 3 3 3
2 2 2 3 4 5 5 5 4 4 4 4 4 3 1 1 0 0 0 0 0 0 0 0 0 0 0 0 0 0 0 0 0 0 0 0 0 0 1 1 1 1 2 2
3 3 3 4 4 4 4 4 3 2 1 2 2 1 0 0 0 0 0 0 0 0 0 0 0 0 0 0 0 0 0 0 0 0 0 0 0 0 0 0 0 0 1 1

GEFSNGP_con_probscp_372.txt.gz
Probability
0 0 1 1 1 0 0 0 1 4 6 7 8 11 11 10 10 12 12 10 8 9 8 8 10 12 11 10 12 14 12 12 12 11 11 11 13 12 9 8 9 9 8 8
0 0 0 0 0 0 1 1 3 6 8 8 9 11 11 11 11 12 11 11 10 9 8 9 10 11 10 8 9 12 12 12 13 14 14 13 14 13 10 8 8 10 10 10
0 0 0 0 0 0 1 3 5 7 9 9 9 9 9 11 12 12 12 11 11 10 8 8 10 11 9 7 6 9 10 11 12 15 15 15 14 13 10 8 9 10 11 11
0 0 0 0 0 1 2 3 4 6 8 9 9 7 6 8 10 11 12 12 11 10 8 9 12 14 13 9 7 8 10 11 13 14 15 14 14 13 12 11 10 11 12 12
0 0 0 0 0 1 2 2 3 5 6 8 8 7 6 6 9 11 13 12 10 9 9 11 15 18 17 14 11 11 13 15 16 16 16 15 13 13 13 13 12 12 13 14
0 0 0 0 0 2 2 2 3 5 6 8 9 9 9 10 12 14 17 16 13 11 12 14 18 19 19 16 16 16 16 17 17 16 16 14 13 12 12 12 11 11 12 13
0 0 0 1 1 2 3 2 3 4 7 9 9 11 13 16 18 21 24 23 18 16 16 17 18 18 17 15 16 16 16 15 14 14 13 12 12 11 10 9 9 8 8 9
0 0 0 1 2 2 2 2 3 4 6 9 10 13 17 19 21 25 27 25 22 19 19 19 19 17 14 13 14 14 12 11 11 10 10 9 9 9 8 8 7 7 6 5
1 1 1 1 2 1 1 1 2 5 8 10 11 13 16 18 21 23 24 23 21 20 19 19 19 17 14 12 12 11 10 9 8 8 7 8 7 7 7 7 6 6 5 4
2 2 2 1 0 0 0 1 3 6 10 12 12 14 15 17 20 22 23 22 21 20 19 19 18 15 13 11 10 9 8 8 7 6 6 6 6 6 6 6 6 6 6 5
3 3 3 1 1 1 1 2 5 8 10 12 13 14 16 17 19 21 22 22 21 20 19 17 14 13 10 8 8 7 5 4 4 6 6 6 6 6 6 6 5 5 5 5
3 3 3 3 3 2 3 4 7 9 10 11 13 14 16 17 19 19 20 20 19 19 18 14 12 10 7 5 4 4 2 1 2 4 5 5 5 5 4 4 3 2 3 3
2 3 3 3 4 4 4 6 9 10 10 10 11 12 13 14 15 14 14 14 15 16 15 12 11 8 5 2 1 1 1 0 1 2 2 2 2 2 2 2 1 0 1 1
3 3 3 3 3 3 3 5 7 8 9 9 9 8 9 10 11 10 9 9 10 12 12 11 9 6 3 1 0 0 0 0 0 0 0 0 0 0 1 1 1 0 0 0
3 3 3 3 3 2 1 2 3 5 6 7 6 6 6 7 8 9 8 7 8 9 10 9 7 4 2 0 0 0 0 0 0 0 0 0 0 0 0 0 0 0 0 0
3 3 3 3 3 2 1 1 2 3 4 5 4 4 4 5 7 9 9 7 7 7 8 7 5 3 2 1 0 0 0 0 0 0 0 0 0 0 0 0 0 0 0 0
2 1 1 2 3 3 3 2 3 4 4 4 3 2 2 3 6 8 9 7 6 6 6 5 4 3 3 2 1 0 0 0 0 0 0 0 0 0 0 0 0 0 0 0
2 1 1 1 2 3 3 2 2 3 4 4 2 1 1 3 6 8 8 6 5 5 4 3 3 3 3 2 1 0 0 0 0 0 0 0 0 0 0 0 0 0 0 0
3 3 3 3 3 3 2 1 1 3 3 2 1 1 1 3 6 7 6 4 3 3 3 3 3 2 2 2 1 0 0 0 0 0 0 0 0 0 0 0 0 0 0 0
2 2 3 4 5 5 4 2 1 1 1 0 0 1 3 4 5 4 2 1 1 2 2 2 1 1 1 1 0 0 0 0 0 0 0 0 0 0 0 0 0 0 0 0
1 1 2 3 5 6 5 2 0 0 0 0 0 2 3 4 3 1 0 0 0 1 1 1 0 0 0 0 0 0 0 0 0 0 0 0 0 0 0 0 0 0 0 0
1 1 2 2 3 5 3 1 0 0 0 0 1 2 3 2 1 0 0 0 0 0 0 0 0 0 0 0 0 0 0 0 0 0 0 0 0 0 0 0 0 0 0 0
0 1 1 1 2 3 1 0 0 0 0 1 2 3 3 1 0 0 0 0 0 0 0 0 0 0 0 0 0 0 0 0 0 0 0 0 0 0 0 0 0 0 0 0
0 0 0 1 2 2 1 0 0 0 1 1 2 3 2 1 0 0 0 0 0 0 0 0 0 0 0 0 0 0 0 0 0 0 0 0 0 0 0 0 0 0 0 0
0 0 0 1 2 3 1 1 1 2 2 2 2 1 1 0 0 0 0 0 0 0 0 0 0 0 0 0 0 0 0 0 0 0 0 0 0 0 0 0 0 0 0 0
0 0 0 1 2 2 2 2 3 3 2 1 1 0 0 0 0 0 0 0 0 0 0 0 0 0 0 0 0 0 0 0 0 0 0 0 0 0 0 0 0 0 0 0
0 0 0 0 1 2 3 3 3 2 1 0 0 0 0 0 0 0 0 0 0 0 0 0 0 0 0 0 0 0 0 0 0 0 0 0 0 0 0 0 0 0 0 0

GEFSNGP_con_probscp_378.txt.gz
Probability
0 1 0 0 1 2 2 2 1 1 1 2 2 3 3 4 4 4 4 3 3 4 7 9 7 6 5 5 4 3 2 1 1 1 1 1 1 1 1 1 1 1 0 0
1 1 1 0 0 1 2 2 2 2 2 2 2 2 3 4 4 3 3 2 3 5 7 9 8 8 7 6 5 4 3 2 2 2 2 2 2 3 2 2 2 2 1 1
0 1 1 0 0 1 2 1 1 2 2 1 1 1 2 3 3 4 4 3 4 5 7 8 9 10 10 7 6 5 4 3 3 3 3 3 5 5 4 3 3 3 3 2
0 0 0 0 0 1 1 1 0 1 1 0 0 0 2 4 5 6 7 6 5 6 7 7 8 8 8 6 6 6 5 4 3 2 2 3 6 6 5 4 4 4 4 4
0 0 0 0 0 0 0 0 0 0 0 0 0 1 2 4 6 7 8 8 7 7 7 6 5 5 5 6 6 6 5 4 3 2 2 4 6 6 6 6 6 7 7 6
0 0 0 0 0 0 0 0 0 0 0 0 0 1 2 2 3 5 6 8 8 7 5 4 3 4 7 8 7 6 5 4 4 3 4 5 6 6 7 7 8 9 9 8
0 0 0 0 0 0 0 0 0 1 1 1 0 0 1 2 3 5 6 7 7 6 4 4 5 8 10 10 8 6 5 5 5 6 6 7 7 6 7 8 9 9 9 8
0 0 0 0 0 0 0 0 1 2 2 2 1 1 2 4 8 10 11 10 9 7 6 6 8 10 11 10 7 6 6 5 6 7 7 7 7 6 6 7 8 8 7 7
0 0 0 0 0 0 0 0 1 2 4 4 3 3 6 9 12 14 15 14 12 11 10 9 9 9 9 7 4 4 4 4 5 5 5 6 6 6 6 6 7 7 6 6
0 0 0 0 0 1 1 1 1 3 5 6 4 5 9 12 13 14 14 14 14 13 11 8 6 5 4 2 1 1 1 2 2 2 3 3 4 4 5 5 6 6 6 6
1 1 1 1 1 1 2 2 3 4 7 7 5 7 11 13 14 14 13 14 14 13 9 5 3 2 1 0 0 0 0 0 0 0 1 2 1 1 2 3 4 4 4 4
2 1 1 2 2 1 2 3 4 6 7 7 6 7 10 11 12 12 13 13 12 11 8 4 1 0 0 0 0 0 0 0 0 0 0 0 0 0 0 1 1 1 1 1
2 1 1 2 3 2 3 3 5 7 7 6 5 6 7 8 8 9 10 11 10 8 5 2 1 0 0 0 0 0 0 0 0 0 0 0 0 0 0 0 0 0 0 0
3 3 3 3 2 3 3 4 4 5 5 4 4 5 6 7 7 8 9 8 7 5 3 2 0 0 0 0 0 0 0 0 0 0 0 0 0 0 0 0 0 0 0 0
2 2 2 2 3 3 3 4 4 4 3 3 3 5 7 8 8 8 7 6 4 3 3 2 0 0 0 0 0 0 0 0 0 0 0 0 0 0 0 0 0 0 0 0
1 1 1 1 2 2 2 3 4 4 3 3 4 5 8 8 7 5 3 2 3 3 2 1 0 0 0 0 0 0 0 0 0 0 0 0 0 0 0 0 0 0 0 0
0 0 0 0 1 1 1 1 3 3 3 3 3 4 5 5 3 2 1 1 2 3 1 0 0 0 0 0 0 0 0 0 0 0 0 0 0 0 0 0 0 0 0 0
1 0 0 0 0 0 0 0 1 2 3 3 3 3 3 1 1 0 1 1 1 1 1 0 0 0 0 0 0 0 0 0 0 0 0 0 0 0 0 0 0 0 0 0
1 0 0 0 0 0 0 0 0 1 1 2 2 2 1 0 0 0 1 1 0 0 0 0 0 0 0 0 0 0 0 0 0 0 0 0 0 0 0 0 0 0 0 0
1 0 0 0 0 0 0 0 0 0 0 1 1 1 0 0 0 0 0 0 0 0 0 0 0 0 0 0 0 0 0 0 0 0 0 0 0 0 0 0 0 0 0 0
0 0 0 0 0 0 0 0 0 0 0 0 0 0 0 0 0 0 0 0 0 0 0 0 0 0 0 0 0 0 0 0 0 0 0 0 0 0 0 0 0 0 0 0
0 0 0 0 0 0 0 0 0 0 0 0 0 0 0 0 0 0 0 0 0 0 0 0 0 0 0 0 0 0 0 0 0 0 0 0 0 0 0 0 0 0 0 0
0 0 0 0 0 0 0 0 0 0 0 0 0 0 1 0 0 0 0 0 0 0 0 0 0 0 0 0 0 0 0 0 0 0 0 0 0 0 0 0 0 0 0 0
0 0 0 0 0 0 0 0 0 0 0 0 0 0 0 0 0 0 0 0 0 0 0 0 0 0 0 0 0 0 0 0 0 0 0 0 0 0 0 0 0 0 0 0
0 0 0 0 0 0 0 0 0 0 0 0 0 0 0 0 0 0 0 0 0 0 0 0 0 0 0 0 0 0 0 0 0 0 0 0 0 0 0 0 0 0 0 0
0 0 0 0 0 0 0 0 0 0 0 0 0 0 0 0 0 0 0 0 0 0 0 0 0 0 0 0 0 0 0 0 0 0 0 0 0 0 0 0 0 0 0 0
0 0 0 0 0 0 0 0 0 0 0 0 0 0 0 0 0 0 0 0 0 0 0 0 0 0 0 0 0 0 0 0 0 0 0 0 0 0 0 0 0 0 0 0

GEFSNGP_con_probscp_384.txt.gz
Probability
0 0 0 0 0 0 0 0 1 3 4 4 5 8 12 14 16 17 15 14 17 20 19 15 13 13 13 14 16 17 18 20 20 18 17 16 14 13 12 12 12 13 14 15
0 0 0 0 0 0 1 1 2 3 4 4 4 8 12 15 17 18 17 16 18 21 19 16 15 15 14 14 16 17 19 21 21 19 17 15 12 11 12 12 12 13 15 16
0 0 0 0 0 0 2 3 4 4 5 4 6 9 11 12 16 18 17 16 17 18 17 16 16 16 15 14 16 18 20 21 21 20 18 14 10 12 14 13 12 13 14 15
0 0 0 0 0 0 2 4 5 5 6 7 8 9 8 8 12 16 15 15 14 14 14 15 14 14 14 15 17 19 21 21 19 17 15 13 12 13 14 13 11 10 12 13
0 0 0 0 0 0 2 4 6 8 8 8 9 8 6 7 12 15 16 15 14 13 14 14 13 12 13 15 18 20 20 18 15 12 11 11 12 12 11 9 8 8 9 10
0 0 0 0 0 0 1 4 9 11 9 8 7 7 8 11 14 16 17 15 15 15 15 14 13 13 14 16 18 19 17 13 9 8 8 9 10 10 9 8 7 7 8 9
0 0 0 1 1 1 2 6 10 10 8 6 6 9 13 14 15 16 16 14 14 14 14 13 14 15 16 17 19 19 15 9 5 6 7 8 8 8 8 8 8 8 8 8
1 2 2 3 3 4 6 7 7 7 6 5 8 13 16 14 12 13 15 15 14 14 13 13 14 16 18 18 19 18 14 8 5 5 6 6 6 6 6 7 7 6 6 5
4 5 6 5 6 7 8 7 6 6 7 8 11 16 17 15 13 13 17 18 17 18 17 15 14 15 17 17 16 15 13 9 5 4 4 3 3 3 3 3 3 3 2 1
6 7 7 7 7 9 9 7 6 7 10 13 15 18 20 20 19 18 18 19 19 21 20 18 14 13 13 13 13 13 11 8 4 2 1 1 1 1 0 1 1 1 0 0
6 7 7 7 8 9 9 8 7 8 11 15 17 19 21 23 23 22 20 18 19 20 20 18 16 13 12 12 12 12 11 8 3 1 0 0 0 0 0 0 0 1 0 0
7 7 6 7 7 8 8 9 8 8 11 14 14 15 18 20 21 21 19 18 19 19 18 17 15 14 13 13 13 13 13 9 4 1 1 1 1 0 0 0 0 0 0 0
8 7 6 7 7 7 7 8 8 9 11 11 11 12 15 18 19 19 18 17 18 18 17 16 14 13 13 14 14 15 14 11 7 4 3 3 2 1 1 1 1 0 0 0
5 5 6 7 7 8 7 7 8 10 11 11 12 14 17 19 20 19 17 16 16 16 16 15 14 13 13 14 14 14 14 12 10 8 6 5 3 3 2 2 2 1 1 0
1 3 6 7 8 8 7 7 7 9 12 13 15 17 20 20 20 19 18 17 17 17 17 16 14 14 14 13 13 12 12 11 10 8 6 4 3 3 3 3 3 3 2 1
2 4 7 9 9 9 9 7 7 9 12 16 18 19 20 19 18 17 16 16 16 16 17 16 15 13 11 10 9 9 9 9 7 6 4 3 3 3 3 3 3 4 3 2
4 6 8 9 10 10 9 8 7 9 12 16 19 20 19 17 16 14 13 13 14 15 15 14 12 10 8 7 6 6 6 6 5 4 3 2 2 2 2 2 3 4 3 2
5 7 8 9 9 9 9 8 8 9 11 15 16 16 15 16 16 13 11 12 13 13 11 9 7 6 5 4 4 5 4 4 3 2 1 1 1 1 1 1 1 1 1 1
4 5 6 7 8 8 8 9 9 9 10 11 11 11 12 15 16 14 13 13 12 10 7 4 3 3 3 2 3 5 4 3 2 1 0 0 0 0 0 0 0 0 0 0
2 3 4 5 7 8 9 10 10 9 8 8 8 8 10 12 13 12 11 10 8 6 5 2 1 1 2 2 2 4 5 4 3 1 1 1 0 0 0 0 0 0 0 0
1 2 3 5 7 9 9 9 9 7 7 7 8 8 9 9 8 7 6 5 4 4 3 2 0 0 1 1 1 3 5 5 3 2 1 1 0 0 0 0 0 0 0 0
2 3 4 4 5 7 8 8 7 6 6 8 9 9 8 6 4 3 3 3 3 2 2 1 0 0 0 0 1 2 3 3 3 2 1 1 0 0 0 0 0 0 0 0
2 3 4 3 4 5 6 6 6 6 6 8 8 7 6 4 1 1 1 2 2 1 1 1 0 0 0 0 0 1 1 2 1 1 0 0 0 0 0 0 0 0 0 0
2 2 3 4 3 3 4 5 6 6 6 6 4 3 3 2 0 0 0 1 1 0 0 0 0 0 0 0 0 0 1 2 1 0 0 0 0 0 0 0 0 0 0 0
2 2 4 5 4 4 4 5 5 5 4 3 1 1 1 0 0 0 0 0 0 0 0 0 0 0 0 0 0 0 1 1 1 0 0 0 0 0 0 0 0 0 0 0
2 3 5 5 5 4 4 4 4 3 1 1 0 0 0 0 0 0 0 0 0 0 0 0 0 0 0 0 0 0 0 0 0 0 0 0 0 0 0 0 0 0 0 0
3 4 5 5 4 4 4 3 3 1 0 0 0 0 0 0 0 0 0 0 0 0 0 0 0 0 0 0 0 0 0 0 0 0 0 0 0 0 0 0 0 0 0 0